Flag for U.S.A. Weather past 2 weeks in Columbia, South Carolina, U.S.A.

Now
67 °F

Sunny.


Feels Like: 67 °F
Forecast: 52 / 79 °F
Wind: 3 mph from Southwest

Location: Columbia Owens Downtown Airport

Current Time: Apr 21, 2015 at 10:09:05 PM

Latest Report: Apr 21, 2015 at 8:53 PM


Visibility: 10 mi

Pressure: 29.89 "Hg

Humidity: 41%

Dew point: 42 °F

Location of ColumbiaLocation

Historic Weather in Columbia — Graph

°F

Columbia temperature yesterday

Maximum temperature yesterday: 78 °F (at 11:53 AM)
Minimum temperature yesterday: 64 °F (at 12:53 AM)
Average temperature yesterday: 70 °F

Past Weeks' High & Low Weather Summary

 TemperatureHumidityPressure
High90 °F (Apr 9, 4:53 PM)96% (Apr 14, 5:53 AM)30.32 "Hg (Apr 14, 5:53 AM)
Low49 °F (Apr 16, 5:53 AM)25% (Apr 21, 4:53 PM)29.70 "Hg (Apr 20, 7:53 PM)
Average69 °F75%30.07 "Hg
* Reported Apr 6 7:53 PM — Apr 21 7:53 PM, Columbia, Weather by CustomWeather, © 2015

Note: Actual official high and low records may vary slightly from our data, if they occured in-between our weather recording intervals... More about our weather records

Advertising

Columbia weather history for previous 24 hours

 ConditionsComfort  
Time TempWeatherWind HumidityBarometerVisibility
7:53 PM
Tue, Apr 21
70 °FSunny.5 mph35%29.88 "Hg10 mi
6:53 PM73 °FSunny.10 mph29%29.87 "Hg10 mi
5:53 PM75 °FSunny.13 mph25%29.86 "Hg10 mi
4:53 PM75 °FSunny.14 mph25%29.86 "Hg10 mi
3:53 PM74 °FSunny.12 mph29%29.87 "Hg10 mi
2:53 PM74 °FSunny.10 mph27%29.89 "Hg10 mi
1:53 PM72 °FSunny.8 mph34%29.91 "Hg10 mi
12:53 PM70 °FSunny.9 mph35%29.93 "Hg10 mi
11:53 AM69 °FSunny.9 mph38%29.95 "Hg10 mi
10:53 AM68 °FSunny.3 mph36%29.96 "Hg10 mi
9:53 AM66 °FSunny.5 mph42%29.95 "Hg10 mi
8:53 AM61 °FSunny.5 mph70%29.94 "Hg10 mi
7:53 AM56 °FSunny.No wind84%29.92 "Hg10 mi
6:53 AM54 °FClear.No wind86%29.89 "Hg10 mi
5:53 AM56 °FClear.No wind81%29.86 "Hg10 mi
4:53 AM60 °FClear.No wind67%29.83 "Hg10 mi
3:53 AM62 °FClear.5 mph65%29.82 "Hg10 mi
2:53 AM64 °FPassing clouds.8 mph63%29.81 "Hg10 mi
1:53 AM65 °FClear.8 mph66%29.80 "Hg10 mi
12:53 AM68 °FClear.9 mph65%29.80 "Hg10 mi
11:53 PM
Mon, Apr 20
68 °FPassing clouds.9 mph73%29.77 "Hg10 mi
10:53 PM68 °FClear.7 mph78%29.75 "Hg10 mi
Weather by CustomWeather, © 2015

See weather overviewHow to use our weather pages